Project,Study,Ord_Occ,Event_Num,Cast_ID,Date_Time_UTC,Date_Time_PST,Lat_Dec,Lon_Dec,Sta_ID,Line,Sta,Depth,Pressure,PrQ,Temp1,Temp1Q,Temp2,Temp2Q,TempAve,Salt1,Salt1Q,Salt1_Corr,Salt2,Salt2Q,Salt2_Corr,SaltAve_Corr,Ox1,Ox1Q,Ox1_CruiseCorr,Ox1_StaCorr,Ox2,Ox2Q,Ox2_CruiseCorr,Ox2_StaCorr,OxAve_StaCorr,Ox1uM,Ox1uM_CruiseCorr,Ox1uM_StaCorr,Ox2uM,Ox2uM_CruiseCorr,Ox2uM_StaCorr,OxAveuM_StaCorr,FluorV,FluorQ,EstChl_CruiseCorr,EstChl_StaCorr,ISUSV,ISUSQ,EstNO3_CruiseCorr,EstNO3_StaCorr,SigThetaTS1,SigThetaTS1Q,SigThetaTS2,SigThetaTS2Q,BAT,XMiss,TransQ,pH,pHQ,SPAR,SPARQ,PAR,PARQ,PoT1,PoT2,DynHt,SVA,OxSat1,OxSat2,BTL_Depth,BTL_Temp,SaltB,OxB,OxBuM,Chl-a,Phaeo,NO3,NO2,NH4,PO4,SIL
CalCOFI,2101RL,008,,2101_008d,17-Jan-2021 06:56:18,16-Jan-2021 22:56:18,32.34634,-118.55517,093.3 045.0,093.3,045.0,3.000,3.021,,14.8868,,14.8888,,14.8878,33.3534,,33.3592,33.3459,,33.3479,33.3536,5.6721,,5.9363,5.8163,5.5973,,5.9429,5.7790,5.7977,247.202,259.0313,253.7571,243.943,275.3449,252.1302,252.9437,0.0733,,0.3524,0.4184, ,, , ,24.7272,,24.7211,,0.7563,82.7709,,,,1.9030E+00,,1.2701E+00,,14.8864,14.8883,-0.0003,320.830,98.414,97.116,2,,33.3485,5.895,257.17,0.361,0.093,,,,,
CalCOFI,2101RL,008,,2101_008d,17-Jan-2021 06:56:27,16-Jan-2021 22:56:27,32.34632,-118.55519,093.3 045.0,093.3,045.0,4.000,4.028,,14.8440,,14.8337,,14.8389,33.3568,,33.3626,33.3499,,33.3519,33.3573,5.6836,,5.9484,5.8277,5.6318,,5.9795,5.8137,5.8207,247.701,259.5536,254.2536,245.444,275.8998,253.6415,253.9476,0.0737,,0.3557,0.4224, ,, , ,24.7391,,24.7360,,0.7754,82.3819,,,,1.8523E+00,,1.1857E+00,,14.8434,14.8331,0.0034,319.728,98.532,97.609,,,,,,,,,,,,
CalCOFI,2101RL,008,,2101_008d,17-Jan-2021 06:56:31,16-Jan-2021 22:56:31,32.34632,-118.55520,093.3 045.0,093.3,045.0,5.000,5.035,,14.8832,,14.8854,,14.8843,33.3556,,33.3614,33.3479,,33.3499,33.3557,5.6720,,5.9362,5.8162,5.6388,,5.9870,5.8207,5.8185,247.196,259.0250,253.7512,245.754,275.3382,253.9536,253.8524,0.0758,,0.3729,0.4437, ,, , ,24.7298,,24.7234,,0.7648,82.5969,,,,1.8474E+00,,1.1522E+00,,14.8825,14.8846,0.0067,320.646,98.407,97.831,,,,,,,,,,,,
CalCOFI,2101RL,008,,2101_008d,17-Jan-2021 06:56:34,16-Jan-2021 22:56:34,32.34632,-118.55518,093.3 045.0,093.3,045.0,6.000,6.042,,14.9208,,14.9207,,14.9208,33.3535,,33.3593,33.3460,,33.3480,33.3537,5.6594,,5.9230,5.8037,5.6332,,5.9810,5.8151,5.8094,246.653,258.4566,253.2109,245.509,274.7344,253.7069,253.4589,0.0773,,0.3852,0.4589, ,, , ,24.7201,,24.7143,,0.7716,82.4577,,,,1.8474E+00,,1.1294E+00,,14.9199,14.9198,0.0099,321.599,98.262,97.801,,,,,,,,,,,,
CalCOFI,2101RL,008,,2101_008d,17-Jan-2021 06:56:37,16-Jan-2021 22:56:37,32.34632,-118.55518,093.3 045.0,093.3,045.0,7.000,7.049,,14.9028,,14.9125,,14.9077,33.3533,,33.3591,33.3460,,33.3480,33.3536,5.6743,,5.9386,5.8185,5.6246,,5.9719,5.8065,5.8125,247.301,259.1349,253.8556,245.137,275.4550,253.3324,253.5940,0.0813,,0.4180,0.4993, ,, , ,24.7239,,24.7162,,0.7660,82.5727,,,,1.8474E+00,,1.1097E+00,,14.9018,14.9115,0.0132,321.275,98.485,97.637,,,,,,,,,,,,
CalCOFI,2101RL,008,,2101_008d,17-Jan-2021 06:56:39,16-Jan-2021 22:56:39,32.34632,-118.55519,093.3 045.0,093.3,045.0,8.000,8.057,,14.9002,,14.9084,,14.9043,33.3539,,33.3597,33.3461,,33.3481,33.3539,5.6731,,5.9374,5.8173,5.6213,,5.9684,5.8031,5.8102,247.247,259.0784,253.8019,244.990,275.3949,253.1844,253.4932,0.0777,,0.3885,0.4629, ,, , ,24.7249,,24.7171,,0.7598,82.7007,,,,1.8474E+00,,1.0831E+00,,14.8990,14.9073,0.0164,321.202,98.459,97.571,,,,,,,,,,,,
CalCOFI,2101RL,008,,2101_008d,17-Jan-2021 06:56:42,16-Jan-2021 22:56:42,32.34632,-118.55520,093.3 045.0,093.3,045.0,9.000,9.064,,14.8758,,14.8803,,14.8781,33.3543,,33.3601,33.3466,,33.3486,33.3544,5.6788,,5.9433,5.8229,5.6319,,5.9796,5.8138,5.8184,247.495,259.3380,254.0487,245.453,275.6707,253.6505,253.8496,0.0755,,0.3705,0.4406, ,, , ,24.7306,,24.7236,,0.7634,82.6263,,,,1.8474E+00,,1.0607E+00,,14.8744,14.8790,0.0196,320.696,98.510,97.701,,,,,,,,,,,,
CalCOFI,2101RL,008,,2101_008d,17-Jan-2021 06:56:45,16-Jan-2021 22:56:45,32.34632,-118.55520,093.3 045.0,093.3,045.0,10.000,10.071,,14.8757,,14.8764,,14.8761,33.3541,,33.3599,33.3471,,33.3491,33.3545,5.6787,,5.9432,5.8229,5.6301,,5.9777,5.8120,5.8175,247.489,259.3317,254.0427,245.374,275.6640,253.5710,253.8069,0.0771,,0.3836,0.4568, ,, , ,24.7304,,24.7249,,0.7617,82.6598,,,,1.8474E+00,,1.0440E+00,,14.8742,14.8749,0.0229,320.738,98.507,97.662,10,,33.3599,5.899,257.34,0.364,0.102,,,,,
CalCOFI,2101RL,008,,2101_008d,17-Jan-2021 06:56:47,16-Jan-2021 22:56:47,32.34632,-118.55520,093.3 045.0,093.3,045.0,11.000,11.078,,14.8567,,14.8531,,14.8549,33.3544,,33.3602,33.3471,,33.3491,33.3547,5.6658,,5.9297,5.8100,5.6414,,5.9897,5.8234,5.8167,246.926,258.7423,253.4825,245.863,275.0380,254.0634,253.7730,0.0779,,0.3901,0.4649, ,, , ,24.7348,,24.7299,,0.7629,82.6368,,,,1.8474E+00,,1.0314E+00,,14.8551,14.8515,0.0261,320.349,98.247,97.812,,,,,,,,,,,,
CalCOFI,2101RL,008,,2101_008d,17-Jan-2021 06:56:49,16-Jan-2021 22:56:49,32.34631,-118.55520,093.3 045.0,093.3,045.0,12.000,12.085,,14.8327,,14.8319,,14.8323,33.3543,,33.3601,33.3468,,33.3488,33.3545,5.6725,,5.9367,5.8167,5.6580,,6.0074,5.8401,5.8284,247.217,259.0470,253.7721,246.588,275.3616,254.7933,254.2827,0.0808,,0.4139,0.4942, ,, , ,24.7399,,24.7343,,0.7668,82.5550,,,,1.8474E+00,,1.0165E+00,,14.8310,14.8302,0.0293,319.893,98.316,98.059,,,,,,,,,,,,
CalCOFI,2101RL,008,,2101_008d,17-Jan-2021 06:56:53,16-Jan-2021 22:56:53,32.34630,-118.55520,093.3 045.0,093.3,045.0,13.000,13.092,,14.7970,,14.8022,,14.7996,33.3570,,33.3628,33.3485,,33.3505,33.3567,5.6856,,5.9504,5.8297,5.6635,,6.0132,5.8456,5.8377,247.786,259.6426,254.3382,246.823,275.9943,255.0300,254.6841,0.0760,,0.3746,0.4457, ,, , ,24.7497,,24.7420,,0.7665,82.5619,,,,1.8474E+00,,9.9421E-01,,14.7951,14.8003,0.0325,318.994,98.474,98.096,,,,,,,,,,,,
CalCOFI,2101RL,008,,2101_008d,17-Jan-2021 06:56:56,16-Jan-2021 22:56:56,32.34630,-118.55520,093.3 045.0,093.3,045.0,14.000,14.099,,14.8231,,14.8167,,14.8199,33.3547,,33.3605,33.3471,,33.3491,33.3548,5.6766,,5.9410,5.8208,5.6509,,5.9998,5.8329,5.8269,247.394,259.2322,253.9482,246.277,275.5584,254.4802,254.2142,0.0738,,0.3565,0.4235, ,, , ,24.7423,,24.7378,,0.7648,82.5975,,,,2.2352E+00,,9.7278E-01,,14.8210,14.8147,0.0357,319.722,98.368,97.906,,,,,,,,,,,,
CalCOFI,2101RL,008,,2101_008d,17-Jan-2021 06:56:58,16-Jan-2021 22:56:58,32.34630,-118.55520,093.3 045.0,093.3,045.0,15.000,15.106,,14.8218,,14.8159,,14.8189,33.3551,,33.3609,33.3483,,33.3503,33.3556,5.6634,,5.9272,5.8076,5.6331,,5.9809,5.8150,5.8113,246.822,258.6335,253.3791,245.502,274.9223,253.6999,253.5395,0.0793,,0.4016,0.4791, ,, , ,24.7429,,24.7390,,0.7679,82.5335,,,,1.8547E+00,,9.6276E-01,,14.8195,14.8137,0.0390,319.695,98.138,97.597,,,,,,,,,,,,
CalCOFI,2101RL,008,,2101_008d,17-Jan-2021 06:57:00,16-Jan-2021 22:57:00,32.34628,-118.55520,093.3 045.0,093.3,045.0,16.000,16.113,,14.7435,,14.7511,,14.7473,33.3683,,33.3741,33.3601,,33.3621,33.3681,5.6886,,5.9536,5.8327,5.6726,,6.0229,5.8547,5.8437,247.912,259.7745,254.4635,247.216,276.1344,255.4257,254.9446,0.0876,,0.4696,0.5630, ,, , ,24.7700,,24.7620,,0.7728,82.4313,,,,1.8474E+00,,9.5031E-01,,14.7412,14.7487,0.0422,317.150,98.428,98.160,,,,,,,,,,,,
CalCOFI,2101RL,008,,2101_008d,17-Jan-2021 06:57:08,16-Jan-2021 22:57:08,32.34630,-118.55521,093.3 045.0,093.3,045.0,17.000,17.120,,14.6455,,14.6615,,14.6535,33.3804,,33.3862,33.3713,,33.3733,33.3798,5.6845,,5.9493,5.8286,5.6573,,6.0066,5.8393,5.8340,247.726,259.5798,254.2785,246.543,275.9276,254.7480,254.5133,0.0810,,0.4155,0.4963, ,, , ,24.8004,,24.7899,,0.7828,82.2260,,,,1.9569E+00,,8.8517E-01,,14.6430,14.6590,0.0459,314.284,98.171,97.727,,,,,,,,,,,,
CalCOFI,2101RL,008,,2101_008d,17-Jan-2021 06:57:18,16-Jan-2021 22:57:18,32.34626,-118.55522,093.3 045.0,093.3,045.0,18.000,18.128,,14.6257,,14.6259,,14.6258,33.3825,,33.3883,33.3754,,33.3774,33.3829,5.6840,,5.9488,5.8281,5.6627,,6.0124,5.8448,5.8365,247.703,259.5557,254.2556,246.778,275.9020,254.9846,254.6201,0.0912,,0.4991,0.5994, ,, , ,24.8062,,24.8006,,0.7877,82.1251,,,,1.8388E+00,,8.2415E-01,,14.6231,14.6233,0.0492,313.759,98.125,97.754,,,,,,,,,,,,
CalCOFI,2101RL,008,,2101_008d,17-Jan-2021 06:57:24,16-Jan-2021 22:57:24,32.34622,-118.55522,093.3 045.0,093.3,045.0,19.000,19.135,,14.6209,,14.6216,,14.6213,33.3841,,33.3899,33.3768,,33.3788,33.3844,5.6738,,5.9381,5.8180,5.6432,,5.9916,5.8252,5.8216,247.256,259.0878,253.8109,245.927,275.4049,254.1278,253.9694,0.0946,,0.5270,0.6338, ,, , ,24.8085,,24.8027,,0.7873,82.1341,,,,1.8474E+00,,7.9124E-01,,14.6181,14.6188,0.0524,313.571,97.939,97.409,,,,,,,,,,,,
CalCOFI,2101RL,008,,2101_008d,17-Jan-2021 06:57:29,16-Jan-2021 22:57:29,32.34620,-118.55525,093.3 045.0,093.3,045.0,20.000,20.142,,14.6160,,14.6172,,14.6166,33.3848,,33.3906,33.3772,,33.3792,33.3849,5.6741,,5.9384,5.8183,5.6488,,5.9976,5.8308,5.8246,247.272,259.1045,253.8268,246.169,275.4227,254.3715,254.0992,0.0975,,0.5507,0.6631, ,, , ,24.8101,,24.8039,,0.7874,82.1309,,,,1.8474E+00,,7.5839E-01,,14.6130,14.6143,0.0556,313.444,97.937,97.497,20,,33.3923,5.819,253.81,0.822,0.314,,,,,
CalCOFI,2101RL,008,,2101_008d,17-Jan-2021 06:57:34,16-Jan-2021 22:57:34,32.34620,-118.55526,093.3 045.0,093.3,045.0,21.000,21.149,,14.6133,,14.6137,,14.6135,33.3887,,33.3945,33.3813,,33.3833,33.3889,5.6806,,5.9452,5.8247,5.6544,,6.0035,5.8364,5.8306,247.553,259.3987,254.1064,246.413,275.7352,254.6171,254.3618,0.0972,,0.5483,0.6601, ,, , ,24.8137,,24.8079,,0.7930,82.0169,,,,1.8474E+00,,7.2521E-01,,14.6102,14.6106,0.0587,313.130,98.045,97.590,,,,,,,,,,,,
CalCOFI,2101RL,008,,2101_008d,17-Jan-2021 06:57:38,16-Jan-2021 22:57:38,32.34620,-118.55526,093.3 045.0,093.3,045.0,22.000,22.156,,14.6037,,14.6042,,14.6040,33.3915,,33.3973,33.3843,,33.3863,33.3918,5.6677,,5.9317,5.8119,5.6437,,5.9922,5.8257,5.8188,246.989,258.8083,253.5452,245.947,275.1080,254.1479,253.8466,0.0956,,0.5352,0.6439, ,, , ,24.8180,,24.8123,,0.7799,82.2858,,,,1.8474E+00,,7.0662E-01,,14.6005,14.6009,0.0619,312.754,97.805,97.389,,,,,,,,,,,,
CalCOFI,2101RL,008,,2101_008d,17-Jan-2021 06:57:42,16-Jan-2021 22:57:42,32.34621,-118.55526,093.3 045.0,093.3,045.0,23.000,23.163,,14.5990,,14.5997,,14.5994,33.3918,,33.3976,33.3846,,33.3866,33.3921,5.6683,,5.9323,5.8125,5.6348,,5.9827,5.8167,5.8146,247.016,258.8365,253.5721,245.558,275.1381,253.7563,253.6642,0.0980,,0.5548,0.6682, ,, , ,24.8192,,24.8135,,0.7779,82.3267,,,,1.8474E+00,,6.8589E-01,,14.5957,14.5963,0.0650,312.667,97.807,97.226,,,,,,,,,,,,
CalCOFI,2101RL,008,,2101_008d,17-Jan-2021 06:57:44,16-Jan-2021 22:57:44,32.34622,-118.55526,093.3 045.0,093.3,045.0,24.000,24.170,,14.5941,,14.5944,,14.5943,33.3920,,33.3978,33.3848,,33.3868,33.3923,5.6585,,5.9221,5.8028,5.6390,,5.9872,5.8209,5.8119,246.588,258.3885,253.1462,245.741,274.6621,253.9405,253.5434,0.0982,,0.5565,0.6702, ,, , ,24.8204,,24.8148,,0.7756,82.3743,,,,1.8474E+00,,6.6798E-01,,14.5905,14.5909,0.0682,312.580,97.628,97.289,,,,,,,,,,,,
CalCOFI,2101RL,008,,2101_008d,17-Jan-2021 06:57:48,16-Jan-2021 22:57:48,32.34620,-118.55527,093.3 045.0,093.3,045.0,25.000,25.178,,14.5882,,14.5905,,14.5894,33.3929,,33.3987,33.3853,,33.3873,33.3930,5.6499,,5.9131,5.7942,5.6264,,5.9738,5.8083,5.8013,246.213,257.9960,252.7731,245.189,274.2451,253.3847,253.0789,0.0976,,0.5515,0.6641, ,, , ,24.8224,,24.8161,,0.7784,82.3157,,,,1.8474E+00,,6.5141E-01,,14.5845,14.5868,0.0713,312.420,97.469,97.063,,,,,,,,,,,,
CalCOFI,2101RL,008,,2101_008d,17-Jan-2021 06:57:52,16-Jan-2021 22:57:52,32.34620,-118.55526,093.3 045.0,093.3,045.0,26.000,26.185,,14.5681,,14.5701,,14.5691,33.3945,,33.4003,33.3871,,33.3891,33.3947,5.6204,,5.8822,5.7649,5.6037,,5.9497,5.7854,5.7752,244.926,256.6487,251.4927,244.199,272.8140,252.3879,251.9403,0.0990,,0.5630,0.6783, ,, , ,24.8280,,24.8218,,0.7699,82.4904,,,,1.8474E+00,,6.2701E-01,,14.5643,14.5663,0.0745,311.916,96.922,96.633,,,,,,,,,,,,
CalCOFI,2101RL,008,,2101_008d,17-Jan-2021 06:57:55,16-Jan-2021 22:57:55,32.34620,-118.55527,093.3 045.0,093.3,045.0,27.000,27.192,,14.5468,,14.5471,,14.5470,33.3952,,33.4010,33.3881,,33.3901,33.3956,5.6082,,5.8694,5.7528,5.5918,,5.9371,5.7735,5.7632,244.394,256.0918,250.9634,243.681,272.2224,251.8664,251.4149,0.1174,,0.7138,0.8644, ,, , ,24.8330,,24.8275,,0.7671,82.5485,,,,1.8474E+00,,6.1625E-01,,14.5429,14.5432,0.0776,311.466,96.671,96.385,,,,,,,,,,,,
CalCOFI,2101RL,008,,2101_008d,17-Jan-2021 06:57:57,16-Jan-2021 22:57:57,32.34620,-118.55528,093.3 045.0,093.3,045.0,28.000,28.199,,14.5319,,14.5321,,14.5320,33.3963,,33.4021,33.3891,,33.3911,33.3966,5.5980,,5.8588,5.7426,5.5805,,5.9250,5.7621,5.7524,243.947,255.6239,250.5186,243.186,271.7253,251.3680,250.9433,0.1211,,0.7441,0.9018, ,, , ,24.8371,,24.8316,,0.7695,82.4995,,,,1.8474E+00,,6.0778E-01,,14.5278,14.5280,0.0808,311.107,96.466,96.161,,,,,,,,,,,,
CalCOFI,2101RL,008,,2101_008d,17-Jan-2021 06:57:59,16-Jan-2021 22:57:59,32.34620,-118.55528,093.3 045.0,093.3,045.0,29.000,29.206,,14.4862,,14.4865,,14.4864,33.3968,,33.4026,33.3902,,33.3922,33.3974,5.5601,,5.8191,5.7049,5.5519,,5.8947,5.7333,5.7191,242.295,253.8946,248.8750,241.938,269.8882,250.1114,249.4932,0.1193,,0.7294,0.8836, ,, , ,24.8473,,24.8421,,0.7735,82.4178,,,,1.8474E+00,,5.9746E-01,,14.4820,14.4822,0.0839,310.168,95.726,95.581,,,,,,,,,,,,
CalCOFI,2101RL,008,,2101_008d,17-Jan-2021 06:58:02,16-Jan-2021 22:58:02,32.34620,-118.55527,093.3 045.0,093.3,045.0,30.000,30.214,,14.4029,,14.4030,,14.4030,33.3999,,33.4057,33.3923,,33.3943,33.4000,5.4168,,5.6691,5.5625,5.4199,,5.7545,5.6005,5.5815,236.046,247.3532,242.6576,236.182,262.9393,244.3159,243.4868,0.1263,,0.7867,0.9544, ,, , ,24.8672,,24.8614,,0.7837,82.2069,,,,1.8474E+00,,5.8763E-01,,14.3986,14.3986,0.0870,308.292,93.105,93.154,,,,,,,,,,,,
CalCOFI,2101RL,008,,2101_008d,17-Jan-2021 06:58:05,16-Jan-2021 22:58:05,32.34620,-118.55527,093.3 045.0,093.3,045.0,31.000,31.221,,14.1675,,14.1654,,14.1665,33.4143,,33.4201,33.3961,,33.3981,33.4091,5.3307,,5.5790,5.4769,5.3234,,5.6520,5.5034,5.4902,232.278,243.4088,238.9087,231.963,258.7492,240.0679,239.4883,0.1316,,0.8301,1.0080, ,, , ,24.9279,,24.9143,,0.7883,82.1138,,,,1.8474E+00,,5.6367E-01,,14.1630,14.1610,0.0901,302.537,91.197,91.058,,,,,,,,,,,,
CalCOFI,2101RL,008,,2101_008d,17-Jan-2021 06:58:08,16-Jan-2021 22:58:08,32.34620,-118.55528,093.3 045.0,093.3,045.0,32.000,32.228,,14.1189,,14.1204,,14.1197,33.3962,,33.4020,33.3890,,33.3910,33.3965,5.2844,,5.5306,5.4309,5.2700,,5.5953,5.4497,5.4403,230.263,241.2995,236.9039,229.638,256.5085,237.7270,237.3155,0.1205,,0.7392,0.8957, ,, , ,24.9241,,24.9182,,0.7830,82.2222,,,,2.2570E+00,,5.5402E-01,,14.1143,14.1158,0.0931,302.921,90.307,90.060,,,,,,,,,,,,
CalCOFI,2101RL,008,,2101_008d,17-Jan-2021 06:58:09,16-Jan-2021 22:58:09,32.34620,-118.55528,093.3 045.0,093.3,045.0,33.000,33.235,,14.0929,,14.0932,,14.0931,33.3973,,33.4031,33.3902,,33.3922,33.3977,5.2337,,5.4775,5.3805,5.2312,,5.5541,5.4107,5.3956,228.051,238.9840,234.7031,227.942,254.0487,236.0193,235.3612,0.1196,,0.7318,0.8866, ,, , ,24.9304,,24.9249,,0.7766,82.3536,,,,1.8586E+00,,5.4875E-01,,14.0882,14.0884,0.0962,302.351,89.393,89.347,,,,,,,,,,,,
CalCOFI,2101RL,008,,2101_008d,17-Jan-2021 06:58:12,16-Jan-2021 22:58:12,32.34620,-118.55528,093.3 045.0,093.3,045.0,34.000,34.242,,14.0497,,14.0489,,14.0493,33.3990,,33.4048,33.3925,,33.3945,33.3997,5.1777,,5.4189,5.3248,5.1716,,5.4908,5.3507,5.3378,225.611,236.4298,232.2755,225.345,251.3354,233.4045,232.8400,0.1242,,0.7695,0.9331, ,, , ,24.9407,,24.9359,,0.7767,82.3506,,,,1.8474E+00,,5.3735E-01,,14.0448,14.0440,0.0992,301.392,88.362,88.252,,,,,,,,,,,,
CalCOFI,2101RL,008,,2101_008d,17-Jan-2021 06:58:14,16-Jan-2021 22:58:14,32.34620,-118.55528,093.3 045.0,093.3,045.0,35.000,35.250,,13.9184,,13.9193,,13.9189,33.4038,,33.4096,33.3973,,33.3993,33.4045,5.1136,,5.3518,5.2611,5.1227,,5.4388,5.3015,5.2813,222.809,233.4967,229.4876,223.206,248.2195,231.2508,230.3692,0.1212,,0.7449,0.9028, ,, , ,24.9717,,24.9664,,0.7749,82.3889,,,,1.8474E+00,,5.2498E-01,,13.9134,13.9144,0.1022,298.468,87.037,87.190,,,,,,,,,,,,
CalCOFI,2101RL,008,,2101_008d,17-Jan-2021 06:58:17,16-Jan-2021 22:58:17,32.34620,-118.55528,093.3 045.0,093.3,045.0,36.000,36.257,,13.8695,,13.8704,,13.8700,33.4058,,33.4116,33.3988,,33.4008,33.4062,4.9794,,5.2113,5.1277,5.0003,,5.3088,5.1784,5.1531,216.961,227.3750,223.6693,217.873,241.7164,225.8812,224.7753,0.1308,,0.8236,0.9999, ,, , ,24.9833,,24.9777,,0.7788,82.3078,,,,1.8474E+00,,5.1051E-01,,13.8644,13.8653,0.1052,297.382,84.670,85.024,,,,,,,,,,,,
CalCOFI,2101RL,008,,2101_008d,17-Jan-2021 06:58:18,16-Jan-2021 22:58:18,32.34620,-118.55528,093.3 045.0,093.3,045.0,37.000,37.264,,13.8382,,13.8380,,13.8381,33.4169,,33.4227,33.4101,,33.4121,33.4174,4.9401,,5.1702,5.0886,4.9360,,5.2405,5.1137,5.1012,215.245,225.5787,221.9619,215.067,239.8082,223.0559,222.5089,0.1262,,0.7859,0.9534, ,, , ,24.9984,,24.9932,,0.7840,82.2019,,,,1.8474E+00,,5.0566E-01,,13.8329,13.8327,0.1082,295.978,83.954,83.880,,,,,,,,,,,,
CalCOFI,2101RL,008,,2101_008d,17-Jan-2021 06:58:20,16-Jan-2021 22:58:20,32.34620,-118.55528,093.3 045.0,093.3,045.0,38.000,38.271,,13.8142,,13.8118,,13.8130,33.4255,,33.4313,33.4191,,33.4211,33.4262,4.9273,,5.1568,5.0759,4.9092,,5.2121,5.0867,5.0813,214.683,224.9904,221.4028,213.895,239.1833,221.8759,221.6394,0.1253,,0.7785,0.9443, ,, , ,25.0100,,25.0055,,0.7812,82.2595,,,,1.8474E+00,,4.9831E-01,,13.8088,13.8065,0.1112,294.904,83.699,83.384,,,,,,,,,,,,
CalCOFI,2101RL,008,,2101_008d,17-Jan-2021 06:58:22,16-Jan-2021 22:58:22,32.34619,-118.55528,093.3 045.0,093.3,045.0,39.000,39.278,,13.7835,,13.7831,,13.7833,33.4347,,33.4405,33.4279,,33.4299,33.4352,4.8886,,5.1163,5.0374,4.8750,,5.1757,5.0523,5.0449,212.995,223.2234,219.7233,212.405,237.3062,220.3756,220.0495,0.1339,,0.8490,1.0312, ,, , ,25.0235,,25.0183,,0.7806,82.2711,,,,1.8474E+00,,4.8263E-01,,13.7780,13.7776,0.1142,293.644,82.996,82.761,,,,,,,,,,,,
CalCOFI,2101RL,008,,2101_008d,17-Jan-2021 06:58:24,16-Jan-2021 22:58:24,32.34618,-118.55528,093.3 045.0,093.3,045.0,40.000,40.286,,13.7781,,13.7785,,13.7783,33.4421,,33.4479,33.4346,,33.4366,33.4423,4.8348,,5.0600,4.9839,4.8345,,5.1327,5.0116,4.9978,210.647,220.7655,217.3872,210.636,234.6952,218.5945,217.9909,0.1223,,0.7539,0.9139, ,, , ,25.0303,,25.0244,,0.7795,82.2929,,,,1.8474E+00,,4.5927E-01,,13.7724,13.7729,0.1171,293.023,82.076,82.068,,,,,,,,,,,,
CalCOFI,2101RL,008,,2101_008d,17-Jan-2021 06:58:26,16-Jan-2021 22:58:26,32.34616,-118.55528,093.3 045.0,093.3,045.0,41.000,41.293,,13.7607,,13.7588,,13.7598,33.4457,,33.4515,33.4392,,33.4412,33.4464,4.8015,,5.0251,4.9508,4.8035,,5.0998,4.9804,4.9656,209.198,219.2487,215.9456,209.286,233.0839,217.2352,216.5904,0.1240,,0.7679,0.9311, ,, , ,25.0367,,25.0321,,0.7772,82.3408,,,,1.8474E+00,,4.5018E-01,,13.7549,13.7530,0.1201,292.442,81.485,81.512,,,,,,,,,,,,
CalCOFI,2101RL,008,,2101_008d,17-Jan-2021 06:58:29,16-Jan-2021 22:58:29,32.34615,-118.55528,093.3 045.0,093.3,045.0,42.000,42.300,,13.6968,,13.6943,,13.6956,33.4506,,33.4564,33.4437,,33.4457,33.4511,4.6555,,4.8723,4.8057,4.6770,,4.9654,4.8531,4.8294,202.833,212.5858,209.6128,203.772,226.0059,211.6834,210.6481,0.1227,,0.7572,0.9180, ,, , ,25.0536,,25.0488,,0.7783,82.3185,,,,1.8474E+00,,4.3637E-01,,13.6909,13.6884,0.1230,290.860,78.907,79.264,,,,,,,,,,,,
CalCOFI,2101RL,008,,2101_008d,17-Jan-2021 06:58:31,16-Jan-2021 22:58:31,32.34614,-118.55528,093.3 045.0,093.3,045.0,43.000,43.308,,13.5569,,13.5524,,13.5547,33.4549,,33.4607,33.4493,,33.4513,33.4560,4.5307,,4.7417,4.6816,4.5615,,4.8428,4.7369,4.7093,197.388,206.8860,204.1953,198.733,219.9510,206.6098,205.4026,0.1112,,0.6630,0.8017, ,, , ,25.0855,,25.0821,,0.7699,82.4911,,,,1.8474E+00,,4.1779E-01,,13.5509,13.5464,0.1259,287.843,76.574,77.085,,,,,,,,,,,,
CalCOFI,2101RL,008,,2101_008d,17-Jan-2021 06:58:32,16-Jan-2021 22:58:32,32.34614,-118.55530,093.3 045.0,093.3,045.0,44.000,44.315,,13.4415,,13.4429,,13.4422,33.4574,,33.4632,33.4504,,33.4524,33.4578,4.4688,,4.6769,4.6201,4.4924,,4.7694,4.6674,4.6438,194.689,204.0606,201.5100,195.718,216.9496,203.5741,202.5421,0.1088,,0.6433,0.7774, ,, , ,25.1108,,25.1051,,0.7620,82.6547,,,,1.8474E+00,,4.0594E-01,,13.4354,13.4368,0.1288,285.449,75.352,75.748,,,,,,,,,,,,
CalCOFI,2101RL,008,,2101_008d,17-Jan-2021 06:58:34,16-Jan-2021 22:58:34,32.34614,-118.55530,093.3 045.0,093.3,045.0,45.000,45.322,,13.3546,,13.3549,,13.3548,33.4641,,33.4699,33.4574,,33.4594,33.4647,4.4132,,4.6188,4.5648,4.4326,,4.7059,4.6072,4.5860,192.262,201.5201,199.0953,193.107,214.2508,200.9451,200.0202,0.1052,,0.6138,0.7410, ,, , ,25.1336,,25.1283,,0.7549,82.8000,,,,1.8474E+00,,4.0136E-01,,13.3484,13.3487,0.1317,283.303,74.285,74.608,,,,,,,,,,,,
CalCOFI,2101RL,008,,2101_008d,17-Jan-2021 06:58:35,16-Jan-2021 22:58:35,32.34613,-118.55530,093.3 045.0,093.3,045.0,46.000,46.329,,13.2859,,13.2841,,13.2850,33.4775,,33.4833,33.4712,,33.4732,33.4783,4.3877,,4.5921,4.5394,4.3989,,4.6701,4.5733,4.5564,191.146,200.3518,197.9850,191.636,213.0098,199.4640,198.7245,0.0972,,0.5483,0.6601, ,, , ,25.1578,,25.1533,,0.7499,82.9042,,,,1.8474E+00,,4.0047E-01,,13.2795,13.2777,0.1345,281.026,73.757,73.940,,,,,,,,,,,,
CalCOFI,2101RL,008,,2101_008d,17-Jan-2021 06:58:36,16-Jan-2021 22:58:36,32.34612,-118.55530,093.3 045.0,093.3,045.0,47.000,47.337,,13.1938,,13.1926,,13.1932,33.4866,,33.4924,33.4805,,33.4825,33.4875,4.3796,,4.5836,4.5314,4.3926,,4.6634,4.5670,4.5492,190.788,199.9771,197.6288,191.356,212.6117,199.1821,198.4055,0.0915,,0.5016,0.6025, ,, , ,25.1833,,25.1788,,0.7445,83.0159,,,,1.8474E+00,,3.9337E-01,,13.1874,13.1861,0.1373,278.622,73.486,73.700,,,,,,,,,,,,
CalCOFI,2101RL,008,,2101_008d,17-Jan-2021 06:58:39,16-Jan-2021 22:58:39,32.34612,-118.55530,093.3 045.0,093.3,045.0,48.000,48.344,,13.1183,,13.1175,,13.1179,33.4914,,33.4972,33.4842,,33.4862,33.4917,4.3288,,4.5304,4.4809,4.3375,,4.6049,4.5116,4.4963,188.574,197.6595,195.4260,188.949,210.1496,196.7586,196.0923,0.0885,,0.4770,0.5721, ,, , ,25.2021,,25.1967,,0.7395,83.1212,,,,1.8474E+00,,3.8271E-01,,13.1117,13.1109,0.1401,276.848,72.524,72.663,,,,,,,,,,,,
CalCOFI,2101RL,008,,2101_008d,17-Jan-2021 06:58:41,16-Jan-2021 22:58:41,32.34611,-118.55530,093.3 045.0,093.3,045.0,49.000,49.351,,13.0637,,13.0590,,13.0614,33.4985,,33.5043,33.4926,,33.4946,33.4995,4.2534,,4.4515,4.4059,4.2576,,4.5200,4.4312,4.4186,185.287,194.2186,192.1556,185.466,206.4945,193.2517,192.7037,0.0816,,0.4204,0.5023, ,, , ,25.2184,,25.2148,,0.7391,83.1293,,,,1.8474E+00,,3.6553E-01,,13.0571,13.0523,0.1429,275.319,71.184,71.243,,,,,,,,,,,,
CalCOFI,2101RL,008,,2101_008d,17-Jan-2021 06:58:44,16-Jan-2021 22:58:44,32.34610,-118.55530,093.3 045.0,093.3,045.0,50.000,50.358,,12.9065,,12.8957,,12.9011,33.5240,,33.5298,33.5131,,33.5151,33.5225,4.1417,,4.3346,4.2949,4.1740,,4.4312,4.3471,4.3210,180.409,189.1123,187.3023,181.818,201.0700,189.5786,188.4405,0.0737,,0.3557,0.4224, ,, , ,25.2693,,25.2631,,0.7331,83.2542,,,,1.8474E+00,,3.4951E-01,,12.8997,12.8889,0.1457,270.492,69.100,69.619,50,,33.5414,4.220,184.07,0.332,0.231,,,,,
CalCOFI,2101RL,008,,2101_008d,17-Jan-2021 06:58:46,16-Jan-2021 22:58:46,32.34610,-118.55530,093.3 045.0,093.3,045.0,51.000,51.366,,12.7045,,12.7001,,12.7023,33.5191,,33.5249,33.5143,,33.5163,33.5206,4.0450,,4.2334,4.1987,4.0679,,4.3185,4.2403,4.2195,176.192,184.6980,183.1067,177.188,196.3807,184.9168,184.0118,0.0728,,0.3483,0.4133, ,, , ,25.3052,,25.3023,,0.7264,83.3928,,,,1.8474E+00,,3.3347E-01,,12.6977,12.6933,0.1484,267.089,67.203,67.575,,,,,,,,,,,,
CalCOFI,2101RL,008,,2101_008d,17-Jan-2021 06:58:48,16-Jan-2021 22:58:48,32.34610,-118.55530,093.3 045.0,093.3,045.0,52.000,52.373,,12.5582,,12.5579,,12.5581,33.5307,,33.5365,33.5238,,33.5258,33.5312,4.0087,,4.1954,4.1627,4.0335,,4.2820,4.2057,4.1842,174.604,183.0357,181.5267,175.683,194.6148,183.4015,182.4641,0.0620,,0.2598,0.3041, ,, , ,25.3427,,25.3374,,0.7183,83.5622,,,,1.8474E+00,,3.3375E-01,,12.5513,12.5511,0.1510,263.537,66.403,66.809,,,,,,,,,,,,